Lid_Strength_Index
1 1 1 1 0 -0 -0 0 0 -0 0 0 0 0 0 0 0 0 1 1 1 1 1 1 1 1 1 1 1 1 2 3 4 3 2 2 1 1 0 -0 0 1 1
1 1 1 0 -0 0 1 0 -0 0 -0 0 0 0 0 0 0 1 1 1 1 1 1 1 2 1 1 1 1 2 2 2 3 4 3 2 1 1 1 2 1 1 2
1 1 1 0 1 1 1 0 -0 0 0 -0 -0 0 0 0 0 0 1 1 1 1 1 1 1 1 2 1 1 2 1 1 2 3 4 2 2 2 3 3 3 3 2
1 1 1 1 1 0 0 -0 -0 0 0 1 0 0 1 0 0 0 0 1 1 1 1 1 1 1 2 2 2 2 2 2 2 3 3 3 3 4 4 5 5 4 5
1 2 1 0 0 0 0 1 0 1 0 0 0 0 0 0 0 1 0 1 1 1 1 1 0 0 1 1 1 1 2 2 3 3 3 3 4 4 5 5 5 6 5
1 1 1 1 0 1 0 0 1 1 0 0 1 1 1 0 3 2 1 1 1 1 1 1 0 0 1 1 1 2 1 2 3 3 3 3 3 3 4 4 5 7 7
1 1 1 0 0 1 0 0 0 0 0 1 1 1 1 0 2 4 3 1 1 1 1 1 1 1 0 0 1 2 2 2 2 3 3 3 3 3 3 4 5 5 6
0 1 1 1 1 1 0 1 1 0 0 0 1 1 0 1 2 3 2 0 1 1 1 1 1 1 1 1 1 1 1 1 1 1 2 2 2 2 2 3 5 5 4
1 1 1 0 1 1 1 0 0 0 0 1 1 1 1 1 2 3 2 0 1 1 0 0 0 1 2 3 1 2 2 1 0 1 2 3 4 5 3 3 5 6 6
1 1 0 0 0 1 0 -0 -1 0 1 1 1 0 1 1 2 4 2 1 1 1 1 1 1 3 5 5 1 2 3 2 1 1 1 2 3 3 4 3 4 6 6
0 0 0 -0 -1 0 0 -1 0 1 1 1 1 1 1 1 1 3 4 1 1 1 1 1 1 6 6 5 6 1 2 3 1 1 1 1 1 3 3 3 3 4 5
-0 0 0 -0 0 1 0 0 0 1 2 2 1 2 1 1 1 2 3 4 2 1 2 1 1 5 5 5 4 5 6 4 1 2 2 2 2 2 3 3 2 3 2
0 0 0 0 0 0 1 1 1 1 1 2 2 2 2 1 0 3 4 5 4 2 1 2 4 4 4 3 5 6 6 1 2 3 3 2 2 1 2 2 2 2 2
1 1 1 1 1 1 1 1 1 2 2 2 2 2 2 2 1 1 1 1 1 1 1 2 2 3 4 4 4 3 1 1 2 2 2 2 1 1 3 3 3 3 4
1 1 1 1 1 1 1 1 1 1 1 2 2 2 2 2 2 5 5 4 3 4 6 3 1 2 2 2 2 1 1 1 2 2 2 2 2 2 3 3 3 3 4
1 2 1 1 1 1 2 2 2 4 4 6 7 5 1 5 7 7 8 8 8 8 5 3 3 2 2 2 2 2 2 2 2 2 2 3 3 3 4 3 3 3 4
2 1 1 2 1 2 2 2 3 2 4 5 6 6 7 8 7 8 8 9 7 7 3 3 3 3 4 4 4 3 3 2 2 2 3 3 3 3 4 3 3 3 4
1 3 1 2 2 1 2 2 2 2 3 2 3 4 5 6 7 8 7 6 3 3 2 3 3 3 4 3 4 4 4 3 3 3 3 3 3 3 3 3 3 3 4
1 1 1 1 1 1 1 1 1 2 2 2 1 3 3 5 6 6 6 2 3 2 2 3 2 2 2 3 3 2 2 2 2 2 2 3 3 2 3 3 5 5 5
1 3 3 2 2 1 1 2 2 3 4 4 4 4 3 4 3 2 2 1 2 2 3 3 3 3 3 2 2 2 3 2 3 3 3 3 3 4 4 4 4 4 3
1 1 4 2 1 2 3 3 3 4 5 5 5 5 11 4 2 3 3 3 4 4 4 5 4 4 4 4 3 3 3 3 4 4 4 5 5 5 4 4 4 4 4
1 2 2 2 1 3 3 3 4 5 5 5 4 3 9 3 3 3 3 4 4 4 4 4 3 2 3 3 3 4 5 5 5 5 5 5 5 5 5 5 5 5 5
1 2 1 1 2 3 2 3 3 3 3 3 3 3 3 3 3 3 3 3 3 3 3 3 3 4 3 4 5 6 6 5 5 4 5 5 5 5 5 6 6 6 6
2 1 1 1 2 2 2 2 2 4 2 1 1 1 1 2 2 3 3 3 3 2 2 3 4 4 5 6 6 7 8 6 6 6 4 4 5 6 5 5 6 5 6
1 1 1 2 1 1 1 1 2 1 1 1 1 1 1 1 2 2 3 3 3 2 3 3 4 5 6 7 7 8 11 11 9 11 6 4 4 4 4 4 5 5 5
1 1 1 1 1 1 1 2 2 2 2 1 1 1 1 1 1 2 2 2 2 2 3 4 4 5 7 7 9 11 12 11 9 11 7 3 4 4 4 4 4 5 4